• MPC Preparation (Info)

  • MPEC 2014-Q28 : 2014 QJ33

    The following Minor Planet Electronic Circular may be linked-to from your own Web pages, but must not otherwise be redistributed electronically.

    A form allowing access to any MPEC is at the bottom of this page.


    Read MPEC 2014-Q27 Read MPEC 2014-Q29


    M.P.E.C. 2014-Q28                                Issued 2014 Aug. 23, 01:13 UT
    
         The Minor Planet Electronic Circulars contain information on unusual
             minor planets and routine data on comets.  They are published
       on behalf of Commission 20 of the International Astronomical Union by the
              Minor Planet Center, Smithsonian Astrophysical Observatory,
                              Cambridge, MA 02138, U.S.A.
    
                 Prepared using the Tamkin Foundation Computer Network
    
                                  MPC@CFA.HARVARD.EDU
                URL https://www.minorplanetcenter.net/    ISSN 1523-6714
    
                                       2014 QJ33
    
    Observations:
         K14Q33J* C2014 08 20.44378 22 50 48.483-12 53 22.73         20.5 wLEQ028F51
         K14Q33J  C2014 08 20.45661 22 50 46.849-12 53 27.70         20.8 wLEQ028F51
         K14Q33J  C2014 08 20.46953 22 50 45.211-12 53 32.63         20.7 wLEQ028F51
         K14Q33J  C2014 08 21.24061422 49 21.00 -12 57 44.9          20.3 RqEQ028W86
         K14Q33J  C2014 08 21.24250622 49 20.74 -12 57 45.7          20.3 RqEQ028W86
         K14Q33J  C2014 08 21.24438122 49 20.50 -12 57 46.5          20.4 RqEQ028W86
         K14Q33J  C2014 08 21.24626922 49 20.25 -12 57 47.2          20.3 RqEQ028W86
         K14Q33J  C2014 08 21.24813722 49 20.03 -12 57 47.8          20.3 RqEQ028W86
         K14Q33J  C2014 08 21.25000222 49 19.77 -12 57 48.6          20.4 RqEQ028W86
         K14Q33J  C2014 08 21.25186622 49 19.53 -12 57 49.3          20.4 RqEQ028W86
         K14Q33J KC2014 08 23.01282822 45 45.03 -13 11 16.4          20.2 VqEQ028I93
         K14Q33J KC2014 08 23.02358122 45 43.40 -13 11 21.0          20.1 VqEQ028I93
         K14Q33J KC2014 08 23.03433122 45 41.79 -13 11 26.6          20.2 VqEQ028I93
    
    Observer details:
    F51 Pan-STARRS 1, Haleakala.  Observers N. Primak, A. Schultz, T. Goggia,
        M. Willman.  Measurers B. Bolin, K. Chambers, S. Chastel, L. Denneau,
        H. Flewelling, M. Huber, E. Magnier, E. Schunova, R. Wainscoat, C. Waters.
        1.8-m Ritchey-Chretien + CCD.
    I93 St Pardon de Conques.  Observer F. Losse.  0.40-m f/3.7 reflector + CCD.
    W86 Cerro Tololo-LCOGT B.  Observer T. Lister.  1.0-m f/8 Ritchey-Chretien
        + CCD.
    
    Orbital elements:
    2014 QJ33                                                Earth MOID = 0.0034 AU
    Epoch 2014 Dec. 9.0 TT = JDT 2457000.5                  MPC
    M  13.06630              (2000.0)            P               Q
    n   0.82037032     Peri.   98.21299     +0.12008286     -0.99269853
    a   1.1301327      Node   344.87592     +0.89279320     +0.11300099
    e   0.3219902      Incl.    2.50203     +0.43416634     +0.04219481
    P   1.20           H   23.6           G   0.15           U   7
    Residuals in seconds of arc
    140820 F51  0.0   0.0     140821 W86  0.2-  0.1-    140823 I93  0.0   0.1+
    140820 F51  0.1-  0.0     140821 W86  0.1-  0.0     140823 I93  0.1-  0.3+
    140820 F51  0.0   0.0     140821 W86  0.3+  0.1+    140823 I93  0.1+  0.5-
    140821 W86  0.2-  0.0     140821 W86  0.2+  0.0
    140821 W86  0.3-  0.0     140821 W86  0.3+  0.0
    
    Ephemeris:
    2014 QJ33                a,e,i = 1.13, 0.32, 3                   q = 0.7662
    Date    TT    R. A. (2000) Decl.     Delta      r     Elong.  Phase     V
    2014 07 24    23 01 28.2 -12 01 06   0.3426  1.2931   138.7    31.3    23.2
    ...
    2014 08 08    23 02 54.3 -12 02 45   0.2358  1.2280   152.5    22.4    22.0
    ...
    2014 08 16    22 57 07.7 -12 28 45   0.1856  1.1900   161.4    15.8    21.2
    ...
    2014 08 22    22 47 52.7 -13 03 10   0.1511  1.1602   169.0     9.5    20.4
    2014 08 23    22 45 46.5 -13 10 20   0.1456  1.1552   170.4     8.4    20.3
    2014 08 24    22 43 28.8 -13 17 55   0.1402  1.1501   171.7     7.3    20.2
    ...
    2014 08 30    22 24 37.5 -14 12 46   0.1096  1.1190   174.6     4.9    19.5
    ...
    2014 09 07    21 36 49.7 -15 48 19   0.07384 1.0763   157.2    21.3    19.1
    ...
    2014 09 22    16 54 11.3 -10 17 30   0.04124 0.9941    75.1   102.6    20.4
    
    A. U. Tomatic                (C) Copyright 2014 MPC           M.P.E.C. 2014-Q28
    

    Read MPEC 2014-Q27 Read MPEC 2014-Q29


    MPEC number:

    Enter an MPEC number in one of the following forms:

    • 1997-B01 (the full form)
    • J97B01 (the packed version of the full form)
    • B01 (the abbreviated form)